Hourly Data Report for September 07, 2017

All times are specified in Local Standard Time (LST). Add 1 hour to adjust for Daylight Saving Time where and when it is observed.

GRAND MANAN SAR CS
NEW BRUNSWICK

44°42'43.400" N
66°48'06.900" W
78.20 m
8101925
71030
XGM

Download Data

Hourly Data (September 2017)
Hourly Data Report for September 7, 2017
Temp Definition
°C
Dew Point Temp Definition
°C
Rel Hum Definition
%
Wind Dir Definition
10's deg

Wind Spd Definition
km/h
Visibility Definition
km
Stn Press Definition
kPa
Hmdx Definition


Wind Chill Definition


Weather Definition


TIME
00:00 17.9 17.8 99 21 18   100.51     LegendNANA
01:00 16.4 16.2 99 18 19   100.51     LegendNANA
02:00 15.9 15.7 99 18 18   100.49     LegendNANA
03:00 15.7 15.6 99 19 15   100.41     LegendNANA
04:00 16.1 16.0 99 19 11   100.25     LegendNANA
05:00 15.9 15.8 99 19 15   100.17     LegendNANA
06:00 16.1 16.0 99 20 21   100.12     LegendNANA
07:00 16.7 16.6 99 20 22   100.06     LegendNANA
08:00 17.9 17.8 99 19 21   100.00     LegendNANA
09:00 17.0 16.9 99 18 23   99.90     LegendNANA
10:00 16.3 16.2 99 19 24   99.87     LegendNANA
11:00 17.1 17.0 99 20 27   99.88     LegendNANA
12:00 17.0 16.9 99 21 26   99.83     LegendNANA
13:00 16.6 16.5 99 21 25   99.83     LegendNANA
14:00 15.5 15.4 99 22 22   99.84     LegendNANA
15:00 14.6 14.4 99 23 17   99.90     LegendNANA
16:00 15.2 14.9 98 23 20   99.92     LegendNANA
17:00 14.7 13.6 93 23 18   99.98     LegendNANA
18:00 14.6 13.7 94 23 19   100.00     LegendNANA
19:00 14.7 14.2 97 23 17   100.05     LegendNANA
20:00 14.8 14.4 98 22 18   100.12     LegendNANA
21:00 14.8 14.3 97 23 15   100.13     LegendNANA
22:00 14.4 14.1 98 24 15   100.16     LegendNANA
23:00 14.0 13.7 98 24 15   100.18     LegendNANA

Notes on Data Quality.

Legend

  • E = Estimated
  • M = Missing
  • NA = Not Available
  • ‡ = Partner data that is not subject to review by the National Climate Archives
Date modified: